WV6L-13 Weather Reports


time (UTC)temp
F
wind
direction
speed
knots
gust
knots
rain 1hr
in
rain 24hr
in
rain mn
in
humidity
%
barometer
mb
20260506201953 77 213 1.7 7.8 0.00 0.00 0.00 26 927.2
20260506201453 80 279 2.6 12.2 0.00 0.00 0.00 25 927.1
20260506200952 78 341 1.7 3.5 0.00 0.00 0.00 27 927.3
20260506200452 77 167 5.2 6.1 0.00 0.00 0.00 27 927.4
20260506195952 77 14 3.5 8.7 0.00 0.00 0.00 28 927.4
20260506195453 77 255 1.7 8.7 0.00 0.00 0.00 28 927.4
20260506194952 77 45 2.6 3.5 0.00 0.00 0.00 28 927.3
20260506194452 75 183 2.6 6.1 0.00 0.00 0.00 29 927.6
20260506193953 75 12 0.0 6.1 0.00 0.00 0.00 29 927.7
20260506193452 75 4 5.2 7.0 0.00 0.00 0.00 30 927.6
20260506192952 75 277 8.7 8.7 0.00 0.00 0.00 30 927.8
20260506192453 76 341 2.6 17.4 0.00 0.00 0.00 29 927.8
20260506191953 75 229 4.3 10.4 0.00 0.00 0.00 30 928.1
20260506191453 74 263 7.8 12.2 0.00 0.00 0.00 31 927.9
20260506190952 75 229 7.0 9.6 0.00 0.00 0.00 30 928.1
20260506190453 74 232 7.0 7.8 0.00 0.00 0.00 30 928.1
20260506185952 74 263 6.1 10.4 0.00 0.00 0.00 31 928.1
20260506185452 73 69 2.6 5.2 0.00 0.00 0.00 31 928.2
20260506184952 73 254 10.4 11.3 0.00 0.00 0.00 31 928.2
20260506184452 73 294 4.3 12.2 0.00 0.00 0.00 31 928.4
20260506183952 73 272 9.6 13.0 0.00 0.00 0.00 31 928.4
20260506183452 72 259 4.3 8.7 0.00 0.00 0.00 32 928.4
20260506182952 73 295 12.2 13.0 0.00 0.00 0.00 31 928.3
20260506182453 72 162 1.7 6.1 0.00 0.00 0.00 31 928.5
20260506181953 72 270 4.3 11.3 0.00 0.00 0.00 32 928.5
20260506181452 73 322 7.0 8.7 0.00 0.00 0.00 31 928.6
20260506180953 71 342 0.9 4.3 0.00 0.00 0.00 32 928.5
20260506180453 70 326 2.6 8.7 0.00 0.00 0.00 32 928.6
20260506175953 71 226 6.1 6.1 0.00 0.00 0.00 32 928.8
20260506175453 70 90 0.0 3.5 0.00 0.00 0.00 32 928.9
20260506174952 71 120 3.5 6.1 0.00 0.00 0.00 32 928.7
20260506174452 69 222 5.2 8.7 0.00 0.00 0.00 34 928.8
20260506173952 70 186 5.2 9.6 0.00 0.00 0.00 33 928.8
20260506173452 70 63 3.5 3.5 0.00 0.00 0.00 33 928.8
20260506172952 68 255 3.5 7.0 0.00 0.00 0.00 35 928.9
20260506172452 67 270 2.6 5.2 0.00 0.00 0.00 35 928.9
20260506171953 69 157 2.6 3.5 0.00 0.00 0.00 33 928.7
20260506171452 66 183 1.7 7.0 0.00 0.00 0.00 36 929.0
20260506170953 68 99 2.6 5.2 0.00 0.00 0.00 34 928.8
20260506170452 67 128 1.7 4.3 0.00 0.00 0.00 36 928.9
20260506165952 65 112 1.7 4.3 0.00 0.00 0.00 37 928.7
20260506165452 68 130 4.3 6.1 0.00 0.00 0.00 35 928.9
20260506164953 68 140 4.3 5.2 0.00 0.00 0.00 35 928.7
20260506164453 67 113 2.6 2.6 0.00 0.00 0.00 36 928.7
20260506163953 65 214 4.3 4.3 0.00 0.00 0.00 38 928.9
20260506163453 64 261 1.7 3.5 0.00 0.00 0.00 38 928.8
20260506162953 65 190 2.6 5.2 0.00 0.00 0.00 38 928.8
20260506162453 65 98 0.0 4.3 0.00 0.00 0.00 37 928.7
20260506161953 65 96 2.6 6.1 0.00 0.00 0.00 38 928.7
20260506161453 66 180 0.9 5.2 0.00 0.00 0.00 37 928.8
20260506160953 62 90 0.0 3.5 0.00 0.00 0.00 40 928.8
20260506160454 64 210 3.5 7.0 0.00 0.00 0.00 39 928.8
20260506155953 62 183 1.7 5.2 0.00 0.00 0.00 40 928.8
20260506155453 62 198 0.9 3.5 0.00 0.00 0.00 40 928.8
20260506154954 63 163 1.7 3.5 0.00 0.00 0.00 39 928.9
20260506154453 60 257 1.7 4.3 0.00 0.00 0.00 42 928.8
20260506153954 62 180 2.6 7.0 0.00 0.00 0.00 41 928.8
20260506153453 60 206 1.7 5.2 0.00 0.00 0.00 42 928.5
20260506152952 63 150 3.5 6.1 0.00 0.00 0.00 40 928.8
20260506152452 61 239 1.7 3.5 0.00 0.00 0.00 42 928.8
20260506151954 59 206 2.6 6.1 0.00 0.00 0.00 43 928.8
20260506151454 61 202 1.7 4.3 0.00 0.00 0.00 42 928.7
20260506150952 60 199 3.5 4.3 0.00 0.00 0.00 43 928.7
20260506150452 60 266 1.7 2.6 0.00 0.00 0.00 43 928.8
20260506145953 60 212 2.6 3.5 0.00 0.00 0.00 44 928.7
20260506145453 60 199 2.6 3.5 0.00 0.00 0.00 44 928.7
20260506144952 59 205 2.6 4.3 0.00 0.00 0.00 44 928.7
20260506144452 58 239 3.5 4.3 0.00 0.00 0.00 45 928.8
20260506143953 58 221 1.7 3.5 0.00 0.00 0.00 45 928.6
20260506143453 57 195 0.0 2.6 0.00 0.00 0.00 45 928.6
20260506142952 57 255 1.7 2.6 0.00 0.00 0.00 45 928.6
20260506142452 57 199 0.0 2.6 0.00 0.00 0.00 45 928.6
20260506141953 56 196 1.7 1.7 0.00 0.00 0.00 45 928.5
20260506141453 56 270 0.0 0.9 0.00 0.00 0.00 45 928.3
20260506140952 55 32 0.9 1.7 0.00 0.00 0.00 44 928.5
20260506140452 54 81 0.0 0.9 0.00 0.00 0.00 46 928.5
20260506135952 52 160 0.0 0.9 0.00 0.00 0.00 47 928.4
20260506135453 51 105 0.9 1.7 0.00 0.00 0.00 49 928.3
20260506134952 50 102 0.9 1.7 0.00 0.00 0.00 49 928.3
20260506134452 50 81 0.0 1.7 0.00 0.00 0.00 51 928.4
20260506133953 50 53 1.7 1.7 0.00 0.00 0.00 51 928.3
20260506133452 49 57 0.9 1.7 0.00 0.00 0.00 52 927.9
20260506132953 49 90 1.7 1.7 0.00 0.00 0.00 53 928.0
20260506132452 47 80 1.7 2.6 0.00 0.00 0.00 54 927.8
20260506131953 46 90 1.7 3.5 0.00 0.00 0.00 56 927.8
20260506131452 46 82 1.7 2.6 0.00 0.00 0.00 57 927.8
20260506130952 46 106 2.6 2.6 0.00 0.00 0.00 59 927.6
20260506130452 45 109 2.6 2.6 0.00 0.00 0.00 58 927.4
20260506125952 46 112 1.7 2.6 0.00 0.00 0.00 57 927.5
20260506125453 46 97 2.6 3.5 0.00 0.00 0.00 56 927.5
20260506124953 46 99 2.6 3.5 0.00 0.00 0.00 56 927.3
20260506124452 47 77 1.7 2.6 0.00 0.00 0.00 55 927.2
20260506123952 47 66 0.9 1.7 0.00 0.00 0.00 56 927.2
20260506123452 47 74 1.7 1.7 0.00 0.00 0.00 56 927.2
20260506122952 47 75 1.7 2.6 0.00 0.00 0.00 56 927.3
20260506122453 47 73 1.7 1.7 0.00 0.00 0.00 56 927.1
20260506121954 47 72 1.7 1.7 0.00 0.00 0.00 57 927.0
20260506121452 47 83 0.9 1.7 0.00 0.00 0.00 53 927.1
20260506120952 47 99 1.7 1.7 0.00 0.00 0.00 54 926.9
20260506120453 47 110 2.6 2.6 0.00 0.00 0.00 53 926.9
20260506115952 48 139 1.7 1.7 0.00 0.00 0.00 53 927.0
20260506115452 47 139 1.7 1.7 0.00 0.00 0.00 53 927.1
20260506114953 48 97 0.9 1.7 0.00 0.00 0.00 53 927.0
20260506114452 48 123 0.9 1.7 0.00 0.00 0.00 51 926.9
20260506113954 48 110 1.7 1.7 0.00 0.00 0.00 50 927.0
20260506113452 49 115 1.7 1.7 0.00 0.00 0.00 50 926.8
20260506112952 48 109 0.9 1.7 0.00 0.00 0.00 50 926.8
20260506112452 49 103 0.9 1.7 0.00 0.00 0.00 49 926.7
20260506111953 49 128 1.7 1.7 0.00 0.00 0.00 49 926.6
20260506111452 49 127 1.7 2.6 0.00 0.00 0.00 49 926.6
20260506110954 50 150 1.7 3.5 0.00 0.00 0.00 49 926.4
20260506110453 49 163 1.7 2.6 0.00 0.00 0.00 49 926.6
20260506105953 50 117 1.7 2.6 0.00 0.00 0.00 48 926.6
20260506105453 50 115 1.7 2.6 0.00 0.00 0.00 47 926.4
20260506104952 51 159 1.7 1.7 0.00 0.00 0.00 45 926.5
20260506104452 51 135 1.7 2.6 0.00 0.00 0.00 46 926.3
20260506103952 51 165 0.0 1.7 0.00 0.00 0.00 46 926.3
20260506103452 51 172 0.0 1.7 0.00 0.00 0.00 45 926.2
20260506102952 51 180 0.0 1.7 0.00 0.00 0.00 45 926.3
20260506102453 50 164 1.7 1.7 0.00 0.00 0.00 46 926.1
20260506101952 50 154 0.0 1.7 0.00 0.00 0.00 48 926.0
20260506101452 49 154 1.7 2.6 0.00 0.00 0.00 48 926.0
20260506100953 50 180 1.7 1.7 0.00 0.00 0.00 47 925.9
20260506100453 50 175 1.7 3.5 0.00 0.00 0.00 48 926.2
20260506095953 50 84 1.7 2.6 0.00 0.00 0.00 47 925.9
20260506095453 50 109 1.7 1.7 0.00 0.00 0.00 47 925.9
20260506094953 51 165 0.0 1.7 0.00 0.00 0.00 47 925.8
20260506094453 51 105 0.0 2.6 0.00 0.00 0.00 46 925.8
20260506093953 51 32 0.9 3.5 0.00 0.00 0.00 46 925.6
20260506093453 51 121 2.6 3.5 0.00 0.00 0.00 47 925.7
20260506092952 50 63 1.7 2.6 0.00 0.00 0.00 47 925.7
20260506092452 51 34 1.7 2.6 0.00 0.00 0.00 46 925.7
20260506091952 52 352 1.7 3.5 0.00 0.00 0.00 45 925.7
20260506091452 52 315 2.6 3.5 0.00 0.00 0.00 45 925.5
20260506090953 54 337 0.0 1.7 0.00 0.00 0.00 42 925.7
20260506090453 53 90 0.0 1.7 0.00 0.00 0.00 44 925.6
20260506085952 53 82 1.7 2.6 0.00 0.00 0.00 44 925.7
20260506085452 52 90 0.9 1.7 0.00 0.00 0.00 45 925.5
20260506084953 51 96 1.7 2.6 0.00 0.00 0.00 48 925.5
20260506084452 51 120 1.7 2.6 0.00 0.00 0.00 47 925.5
20260506083952 51 96 0.0 1.7 0.00 0.00 0.00 46 925.4
20260506083453 52 95 1.7 3.5 0.00 0.00 0.00 46 925.3
20260506082953 52 96 0.9 4.3 0.00 0.00 0.00 46 925.3
20260506082453 52 86 1.7 3.5 0.00 0.00 0.00 46 925.3
20260506081953 53 85 1.7 2.6 0.00 0.00 0.00 46 925.3
20260506081452 52 114 1.7 2.6 0.00 0.00 0.00 45 925.3
20260506080952 53 165 0.0 3.5 0.00 0.00 0.00 45 925.2
20260506080453 53 100 1.7 6.1 0.00 0.00 0.00 46 925.1
20260506073453 54 155 2.6 2.6 0.00 0.00 0.00 44 925.2
20260506072953 54 174 0.9 1.7 0.00 0.00 0.00 44 925.1
20260506072453 53 159 1.7 2.6 0.00 0.00 0.00 45 925.2
20260506071953 55 140 3.5 4.3 0.00 0.00 0.00 44 925.1
20260506071453 56 110 1.7 1.7 0.00 0.00 0.00 42 925.1
20260506070952 56 151 0.0 1.7 0.00 0.00 0.00 43 925.0
20260506070453 55 180 0.9 2.6 0.00 0.00 0.00 42 925.0
20260506062453 58 26 0.0 2.6 0.00 0.00 0.00 40 924.6
20260506061953 58 74 0.0 1.7 0.00 0.00 0.00 41 924.4
20260506061452 58 45 1.7 1.7 0.00 0.00 0.00 40 924.5
20260506060952 58 28 1.7 2.6 0.00 0.00 0.00 41 924.6
20260506060453 58 12 1.7 3.5 0.00 0.00 0.00 41 924.7
20260506050952 59 90 0.0 0.9 0.00 0.00 0.00 38 924.2
20260506050454 59 90 1.7 1.7 0.00 0.00 0.00 38 924.3
20260506044953 59 104 2.6 2.6 0.00 0.00 0.00 37 924.2
20260506044453 60 111 0.9 2.6 0.00 0.00 0.00 36 924.1
20260506043953 61 82 1.7 2.6 0.00 0.00 0.00 34 923.9
20260506043453 62 306 0.0 3.5 0.00 0.00 0.00 35 923.8
20260506042953 61 331 0.0 1.7 0.00 0.00 0.00 37 923.8
20260506042453 60 72 1.7 1.7 0.00 0.00 0.00 37 923.7
20260506041952 60 90 0.9 1.7 0.00 0.00 0.00 36 923.5
20260506041452 60 96 1.7 1.7 0.00 0.00 0.00 36 923.7
20260506040953 61 117 0.9 0.9 0.00 0.00 0.00 36 923.5
20260506040452 60 229 0.0 2.6 0.00 0.00 0.00 37 923.3
20260506035953 62 99 1.7 2.6 0.00 0.00 0.00 35 923.2
20260506035452 62 99 1.7 3.5 0.00 0.00 0.00 35 923.3
20260506034952 62 90 1.7 1.7 0.00 0.00 0.00 35 923.3
20260506034453 64 106 1.7 2.6 0.00 0.00 0.00 33 923.1
20260506033953 64 166 1.7 2.6 0.00 0.00 0.00 33 923.1
20260506033452 63 166 1.7 2.6 0.00 0.00 0.00 33 923.1
20260506032953 63 164 1.7 1.7 0.00 0.00 0.00 33 922.9
20260506032453 63 209 0.9 1.7 0.00 0.00 0.00 34 922.8
20260506031952 63 180 0.0 1.7 0.00 0.00 0.00 34 922.6
20260506031452 64 132 1.7 3.5 0.00 0.00 0.00 34 922.6
20260506030953 64 108 1.7 3.5 0.00 0.00 0.00 33 922.6
20260506030453 65 145 2.6 3.5 0.00 0.00 0.00 32 922.5
20260506025953 66 157 1.7 2.6 0.00 0.00 0.00 32 922.3
20260506025452 66 158 2.6 3.5 0.00 0.00 0.00 31 922.4
20260506024953 66 174 0.9 3.5 0.00 0.00 0.00 31 922.5
20260506024453 67 171 3.5 3.5 0.00 0.00 0.00 31 922.2
20260506023953 67 183 1.7 4.3 0.00 0.00 0.00 31 922.1
20260506023453 67 180 1.7 6.1 0.00 0.00 0.00 30 922.0
20260506022953 68 180 2.6 4.3 0.00 0.00 0.00 30 921.9
20260506022453 68 186 2.6 4.3 0.00 0.00 0.00 30 921.9
20260506021952 68 211 5.2 5.2 0.00 0.00 0.00 29 921.8
20260506021452 69 225 0.0 5.2 0.00 0.00 0.00 29 921.9
20260506020953 70 217 4.3 6.1 0.00 0.00 0.00 28 921.8
20260506020453 70 168 3.5 3.5 0.00 0.00 0.00 28 921.7
20260506015952 70 214 2.6 3.5 0.00 0.00 0.00 28 921.8
20260506015453 70 105 0.9 5.2 0.00 0.00 0.00 29 921.6
20260506014953 71 235 3.5 10.4 0.00 0.00 0.00 29 921.8
20260506014453 71 175 4.3 5.2 0.00 0.00 0.00 28 921.5
20260506013953 71 197 3.5 8.7 0.00 0.00 0.00 29 921.6
20260506013453 71 216 2.6 6.1 0.00 0.00 0.00 28 921.7
20260506012953 71 218 7.0 9.6 0.00 0.00 0.00 28 921.6
20260506012453 70 225 1.7 5.2 0.00 0.00 0.00 28 921.6
20260506011953 71 217 3.5 9.6 0.00 0.00 0.00 28 921.5
20260506011452 71 223 9.6 11.3 0.00 0.00 0.00 28 921.6
20260506010952 71 212 7.0 8.7 0.00 0.00 0.00 29 921.5
20260506010453 70 220 5.2 9.6 0.00 0.00 0.00 30 921.6
20260506005953 71 228 5.2 7.8 0.00 0.00 0.00 29 921.5
20260506005453 72 222 8.7 8.7 0.00 0.00 0.00 29 921.6
20260506004953 71 112 1.7 9.6 0.00 0.00 0.00 29 921.3
20260506004452 71 256 5.2 10.4 0.00 0.00 0.00 29 921.4
20260506003953 70 191 5.2 8.7 0.00 0.00 0.00 30 921.4
20260506003453 72 199 4.3 8.7 0.00 0.00 0.00 29 921.4
20260506002953 70 180 1.7 10.4 0.00 0.00 0.00 30 921.4
20260506002453 71 270 3.5 12.2 0.00 0.00 0.00 30 921.5
20260506001952 71 211 4.3 9.6 0.00 0.00 0.00 30 921.3
20260506001453 70 144 3.5 11.3 0.00 0.00 0.00 30 921.5
20260506000953 70 146 7.8 15.6 0.00 0.00 0.00 31 921.3
20260506000453 72 186 3.5 7.8 0.00 0.00 0.00 29 921.3
20260505235953 70 185 2.6 7.8 0.00 0.00 0.00 30 921.3
20260505235453 70 195 2.6 10.4 0.00 0.00 0.00 31 921.4
20260505234952 71 262 5.2 10.4 0.00 0.00 0.00 30 921.2
20260505234453 70 312 8.7 12.2 0.00 0.00 0.00 31 921.2
20260505233953 70 239 5.2 14.8 0.00 0.00 0.00 31 921.2
20260505233453 72 253 5.2 13.9 0.00 0.00 0.00 30 921.3
20260505232952 71 254 4.3 7.0 0.00 0.00 0.00 30 921.1
20260505232453 72 217 8.7 8.7 0.00 0.00 0.00 30 921.3
20260505231953 70 259 5.2 10.4 0.00 0.00 0.00 31 921.2
20260505231453 69 222 2.6 12.2 0.00 0.00 0.00 31 921.3
20260505230952 72 263 4.3 8.7 0.00 0.00 0.00 30 921.4
20260505230452 70 247 3.5 6.1 0.00 0.00 0.00 31 921.3
20260505225953 69 255 4.3 10.4 0.00 0.00 0.00 32 921.5
20260505225452 72 205 3.5 4.3 0.00 0.00 0.00 30 921.5
20260505224953 71 166 1.7 2.6 0.00 0.00 0.00 30 921.7
20260505224453 71 229 3.5 5.2 0.00 0.00 0.00 30 921.9
20260505223953 70 143 0.0 10.4 0.00 0.00 0.00 31 921.8
20260505223452 69 114 1.7 6.1 0.00 0.00 0.00 32 921.7
20260505222953 70 187 5.2 17.4 0.00 0.00 0.00 32 921.7
20260505222452 69 105 2.6 13.0 0.00 0.00 0.00 33 921.8
20260505221953 70 201 2.6 15.6 0.00 0.00 0.00 32 922.0
20260505221453 70 182 3.5 6.1 0.00 0.00 0.00 31 921.8
20260505220953 70 243 1.7 9.6 0.00 0.00 0.00 31 921.8
20260505220452 70 138 8.7 14.8 0.00 0.00 0.00 32 921.9
20260505215952 72 120 8.7 14.8 0.00 0.00 0.00 30 921.9
20260505215453 71 121 6.1 12.2 0.00 0.00 0.00 31 922.1
20260505214953 70 125 3.5 12.2 0.00 0.00 0.00 33 922.3
20260505214453 69 156 5.2 6.1 0.00 0.00 0.00 32 922.2
20260505213953 68 236 0.0 8.7 0.00 0.00 0.00 33 922.3
20260505213452 68 336 7.0 8.7 0.00 0.00 0.00 33 922.4
20260505212953 68 328 7.0 7.0 0.00 0.00 0.00 32 922.3
20260505212453 67 241 1.7 7.8 0.00 0.00 0.00 33 922.4
20260505211953 68 128 3.5 8.7 0.00 0.00 0.00 32 922.4
20260505211452 69 132 8.7 10.4 0.00 0.00 0.00 33 922.5
20260505210953 68 106 2.6 3.5 0.00 0.00 0.00 32 922.6
20260505210453 70 156 7.0 7.8 0.00 0.00 0.00 31 922.6
20260505205952 67 148 1.7 6.1 0.00 0.00 0.00 33 922.7
20260505205453 66 262 3.5 8.7 0.00 0.00 0.00 34 922.7
20260505204953 66 245 1.7 7.0 0.00 0.00 0.00 35 922.7
20260505204453 66 319 5.2 8.7 0.00 0.00 0.00 34 922.6
20260505203953 67 257 5.2 7.8 0.00 0.00 0.00 33 922.6
20260505203452 67 52 3.5 5.2 0.00 0.00 0.00 34 922.7
20260505202953 68 265 1.7 7.0 0.00 0.00 0.00 33 922.7
20260505202453 68 262 5.2 5.2 0.00 0.00 0.00 33 922.9